| time (UTC) | temp C | wind direction | speed KPH | gust KPH | rain 1hr cm | rain 24hr cm | rain mn cm | humidity % | barometer mb |
| 20260505041310 | 10 | 322 | 4.8 | 14.5 | 0.30 | 1.37 | 1.37 | 97 | 1011.9 |
| 20260505040310 | 10 | 314 | 4.8 | 9.7 | 0.28 | 1.35 | 1.35 | 97 | 1012.1 |
| 20260505034310 | 10 | 1 | 6.4 | 12.9 | 0.18 | 1.19 | 1.19 | 97 | 1012.3 |
| 20260505033310 | 10 | 41 | 3.2 | 8.0 | 0.15 | 1.14 | 1.14 | 97 | 1012.3 |
| 20260505031310 | 10 | 319 | 3.2 | 8.0 | 0.20 | 1.09 | 1.09 | 97 | 1012.4 |
| 20260505030310 | 10 | 21 | 6.4 | 8.0 | 0.23 | 1.07 | 1.07 | 97 | 1012.4 |
| 20260505025310 | 10 | 311 | 3.2 | 9.7 | 0.23 | 1.04 | 1.04 | 97 | 1012.5 |
| 20260505024310 | 10 | 324 | 3.2 | 8.0 | 0.23 | 1.02 | 1.02 | 96 | 1012.5 |
| 20260505022310 | 11 | 314 | 3.2 | 9.7 | 0.20 | 0.91 | 0.91 | 96 | 1012.4 |
| 20260505021310 | 11 | 326 | 4.8 | 9.7 | 0.20 | 0.89 | 0.89 | 96 | 1012.4 |
| 20260505020310 | 11 | 302 | 4.8 | 8.0 | 0.23 | 0.84 | 0.84 | 96 | 1012.5 |
| 20260505014310 | 11 | 1 | 3.2 | 8.0 | 0.33 | 0.79 | 0.79 | 96 | 1012.7 |
| 20260505011310 | 11 | 327 | 4.8 | 11.3 | 0.36 | 0.69 | 0.69 | 96 | 1012.8 |
| 20260505010310 | 11 | 354 | 4.8 | 11.3 | 0.33 | 0.61 | 0.61 | 96 | 1012.9 |
| 20260505005310 | 11 | 13 | 6.4 | 9.7 | 0.30 | 0.56 | 0.56 | 96 | 1012.9 |
| 20260505004310 | 11 | 354 | 8.0 | 12.9 | 0.25 | 0.48 | 0.48 | 95 | 1013.0 |
| 20260505003310 | 11 | 4 | 8.0 | 17.7 | 0.23 | 0.43 | 0.43 | 95 | 1013.1 |
| 20260505002310 | 11 | 314 | 8.0 | 12.9 | 0.23 | 0.36 | 0.36 | 95 | 1013.2 |
| 20260505001310 | 11 | 14 | 6.4 | 12.9 | 0.23 | 0.33 | 0.33 | 95 | 1013.3 |
| 20260505000310 | 12 | 327 | 4.8 | 12.9 | 0.23 | 0.30 | 0.30 | 94 | 1013.2 |
| 20260504235310 | 12 | 300 | 4.8 | 9.7 | 0.20 | 0.25 | 0.25 | 94 | 1013.4 |
| 20260504232310 | 12 | 1 | 1.6 | 6.4 | 0.10 | 0.13 | 0.13 | 93 | 1013.5 |
| 20260504231310 | 12 | 302 | 1.6 | 3.2 | 0.10 | 0.10 | 0.10 | 93 | 1013.5 |
| 20260504224310 | 12 | 331 | 3.2 | 8.0 | 0.05 | 0.05 | 0.05 | 92 | 1013.4 |
| 20260504223310 | 12 | 11 | 4.8 | 9.7 | 0.03 | 0.03 | 0.03 | 92 | 1013.5 |
| 20260504221309 | 12 | 300 | 3.2 | 4.8 | 0.00 | 0.00 | 0.00 | 91 | 1013.5 |
| 20260504220310 | 12 | 327 | 1.6 | 3.2 | 0.00 | 0.00 | 0.00 | 91 | 1013.6 |
| 20260504215310 | 12 | 306 | 3.2 | 4.8 | 0.00 | 0.00 | 0.00 | 91 | 1013.6 |
| 20260504214309 | 12 | 1 | 3.2 | 4.8 | 0.00 | 0.00 | 0.00 | 91 | 1013.6 |
| 20260504213309 | 12 | 1 | 1.6 | 6.4 | 0.00 | 0.00 | 0.00 | 91 | 1013.7 |
| 20260504210309 | 12 | 331 | 6.4 | 9.7 | 0.00 | 0.00 | 0.00 | 91 | 1013.9 |
| 20260504205309 | 12 | 330 | 3.2 | 8.0 | 0.00 | 0.00 | 0.00 | 91 | 1013.9 |
| 20260504204309 | 12 | 331 | 3.2 | 6.4 | 0.00 | 0.00 | 0.00 | 91 | 1013.9 |
| 20260504203310 | 12 | 322 | 3.2 | 4.8 | 0.00 | 0.00 | 0.00 | 91 | 1013.9 |
| 20260504201310 | 13 | 309 | 4.8 | 8.0 | 0.00 | 0.00 | 0.00 | 90 | 1013.8 |
| 20260504195309 | 13 | 327 | 4.8 | 11.3 | 0.00 | 0.00 | 0.00 | 90 | 1013.5 |
| 20260504192309 | 13 | 328 | 4.8 | 8.0 | 0.00 | 0.00 | 0.00 | 90 | 1013.6 |
| 20260504191309 | 13 | 276 | 3.2 | 6.4 | 0.00 | 0.00 | 0.00 | 89 | 1013.4 |
| 20260504190309 | 13 | 307 | 4.8 | 8.0 | 0.00 | 0.00 | 0.00 | 89 | 1013.2 |
| 20260504185309 | 13 | 1 | 3.2 | 8.0 | 0.00 | 0.00 | 0.00 | 89 | 1013.2 |
| 20260504184309 | 13 | 324 | 3.2 | 8.0 | 0.00 | 0.00 | 0.00 | 89 | 1013.2 |
| 20260504183309 | 13 | 1 | 1.6 | 8.0 | 0.00 | 0.00 | 0.00 | 89 | 1013.2 |
| 20260504182309 | 13 | 347 | 1.6 | 6.4 | 0.00 | 0.00 | 0.00 | 89 | 1013.4 |
| 20260504181309 | 13 | 11 | 3.2 | 8.0 | 0.00 | 0.00 | 0.00 | 89 | 1013.3 |
| 20260504180309 | 13 | 347 | 3.2 | 6.4 | 0.00 | 0.00 | 0.00 | 89 | 1013.2 |
| 20260504175309 | 13 | 68 | 4.8 | 8.0 | 0.00 | 0.00 | 0.00 | 89 | 1013.1 |
| 20260504174309 | 13 | 72 | 6.4 | 9.7 | 0.00 | 0.00 | 0.00 | 89 | 1013.2 |
| 20260504172309 | 13 | 100 | 6.4 | 11.3 | 0.00 | 0.00 | 0.00 | 89 | 1013.1 |
| 20260504171309 | 13 | 63 | 6.4 | 11.3 | 0.00 | 0.00 | 0.00 | 88 | 1013.0 |
| 20260504170309 | 13 | 51 | 4.8 | 12.9 | 0.00 | 0.00 | 0.00 | 88 | 1013.0 |
| 20260504160309 | 14 | 25 | 3.2 | 8.0 | 0.00 | 0.00 | 0.00 | 87 | 1013.2 |
| 20260504150309 | 15 | 72 | 6.4 | 16.1 | 0.00 | 0.00 | 0.00 | 86 | 1013.1 |
| 20260504141309 | 15 | 27 | 9.7 | 16.1 | 0.00 | 0.00 | 0.00 | 85 | 1013.4 |
| 20260504140310 | 15 | 98 | 6.4 | 11.3 | 0.00 | 0.00 | 0.00 | 85 | 1013.6 |
| 20260504130310 | 15 | 93 | 8.0 | 17.7 | 0.00 | 0.00 | 0.00 | 85 | 1013.7 |
| 20260504120310 | 14 | 53 | 8.0 | 16.1 | 0.00 | 0.00 | 0.00 | 87 | 1013.7 |
| 20260504110309 | 15 | 81 | 8.0 | 16.1 | 0.00 | 0.00 | 0.00 | 88 | 1014.2 |
| 20260504081309 | 13 | 56 | 4.8 | 8.0 | 0.00 | 0.00 | 0.00 | 93 | 1013.7 |
| 20260504080309 | 13 | 59 | 4.8 | 8.0 | 0.00 | 0.00 | 0.00 | 95 | 1013.5 |
| 20260504070309 | 11 | 331 | 1.6 | 3.2 | 0.00 | 0.00 | 0.00 | 97 | 1013.0 |
| 20260504050309 | 8 | 178 | 0.0 | 3.2 | 0.00 | 0.00 | 0.00 | 96 | 1012.1 |
| 20260504044310 | 8 | 168 | 1.6 | 4.8 | 0.00 | 0.00 | 0.00 | 96 | 1011.9 |
| 20260504043310 | 8 | 190 | 3.2 | 4.8 | 0.00 | 0.00 | 0.00 | 96 | 1012.0 |
| 20260504042310 | 8 | 178 | 3.2 | 3.2 | 0.00 | 0.00 | 0.00 | 96 | 1011.8 |